Location: Rowland
(34.5359°N, 79.2929°W)
Time: 15:38:21
(UTC+00:00)

SR - Pass Details

Date: 09 October 2022
Orbit: 577 x 875 km, 66.7° (Epoch: 28 November)

Event Time Altitude Azimuth Distance (km) Brightness Sun altitude
Rises 23:54:08 0° 195° (SSW) 3,387 ? -13.7°
Reaches altitude 10° 23:56:35 10° 192° (SSW) 2,480 ? -14.2°
Maximum altitude 00:02:17 63° 113° (ESE) 972 ? -15.4°
Drops below altitude 10° 00:08:06 10° 33° (NNE) 2,522 ? -16.6°
Sets 00:10:36 0° 31° (NNE) 3,449 ? -17.1°
